Total_Precipitation_Accumulation
0.00 0.00 0.00 0.00 0.00 0.00 0.00 0.00 0.09 0.03 0.01 0.03 0.01 0.00 0.02 0.00 0.00 0.01 0.03 0.00 0.05 0.01 0.01 0.00 0.01 0.01 0.04 0.49 0.31 0.28 0.22 0.47 0.50 0.49 1.64 0.81 0.56 1.47 1.43 2.48 1.55 1.25 1.18 1.05 1.19 1.00 1.10 0.99 0.50 0.28 0.06 0.05 0.05 0.05 0.04 0.02 0.01 0.00 0.01 0.01 0.03 0.01 0.02 0.02 0.05 0.04 0.03 0.02 0.02 0.02 0.02 0.02 0.03 0.03 0.07 0.06 0.06 0.06 0.06 0.13 0.15 0.17 0.18 0.21 0.14 0.17 0.10 0.14 0.21 0.12 0.19 0.15 0.15 0.18 0.14 0.15 0.13
0.00 0.00 0.00 0.00 0.00 0.00 0.02 0.00 0.02 0.01 0.00 0.02 0.04 0.01 0.02 0.00 0.00 0.01 0.03 0.03 0.00 0.04 0.01 0.02 0.01 0.00 0.02 0.02 0.07 0.01 0.12 0.19 0.17 0.31 0.55 0.56 0.95 0.83 1.93 2.58 1.92 1.03 1.04 1.28 1.10 1.29 0.77 0.52 0.39 0.12 0.05 0.05 0.04 0.04 0.03 0.02 0.02 0.01 0.02 0.05 0.03 0.02 0.01 0.02 0.04 0.04 0.02 0.01 0.02 0.03 0.04 0.04 0.04 0.05 0.06 0.07 0.05 0.05 0.07 0.17 0.23 0.30 0.19 0.14 0.20 0.15 0.09 0.12 0.18 0.15 0.15 0.15 0.15 0.12 0.10 0.11 0.12
0.00 0.00 0.00 0.00 0.00 0.00 0.00 0.00 0.03 0.02 0.03 0.02 0.03 0.01 0.00 0.02 0.00 0.00 0.01 0.01 0.00 0.00 0.00 0.01 0.01 0.02 0.00 0.03 0.13 0.21 1.14 0.17 0.09 0.18 0.52 0.36 0.53 1.14 1.59 2.75 1.79 1.37 0.88 0.99 1.31 0.67 0.43 0.26 0.15 0.06 0.06 0.04 0.03 0.04 0.04 0.02 0.01 0.02 0.01 0.04 0.02 0.02 0.01 0.04 0.03 0.05 0.05 0.02 0.03 0.04 0.05 0.08 0.09 0.11 0.07 0.06 0.04 0.04 0.06 0.12 0.31 0.25 0.19 0.18 0.20 0.19 0.18 0.18 0.17 0.16 0.20 0.14 0.09 0.12 0.09 0.08 0.05
0.00 0.00 0.00 0.00 0.01 0.00 0.00 0.00 0.00 0.01 0.01 0.04 0.01 0.00 0.00 0.00 0.00 0.00 0.00 0.00 0.00 0.00 0.00 0.01 0.02 0.01 0.04 0.20 0.15 0.01 0.15 0.49 0.18 0.17 0.59 0.59 0.60 0.94 1.78 2.36 2.65 1.56 0.79 1.09 0.59 0.39 0.17 0.22 0.11 0.08 0.06 0.03 0.03 0.03 0.02 0.03 0.02 0.02 0.03 0.02 0.02 0.02 0.04 0.03 0.06 0.04 0.09 0.10 0.04 0.08 0.11 0.14 0.11 0.09 0.12 0.10 0.05 0.06 0.11 0.16 0.18 0.20 0.18 0.19 0.26 0.16 0.12 0.16 0.10 0.19 0.15 0.07 0.04 0.05 0.05 0.04 0.04
0.00 0.00 0.00 0.00 0.01 0.00 0.00 0.00 0.00 0.01 0.01 0.01 0.06 0.01 0.00 0.00 0.00 0.00 0.00 0.00 0.00 0.00 0.00 0.02 0.00 0.03 0.01 0.12 0.06 0.19 0.48 0.33 0.24 0.20 0.41 0.39 0.57 1.07 1.61 2.36 2.47 1.78 1.09 0.81 0.46 0.36 0.27 0.15 0.06 0.17 0.06 0.06 0.04 0.03 0.03 0.02 0.03 0.02 0.02 0.02 0.02 0.02 0.02 0.06 0.04 0.10 0.07 0.09 0.09 0.10 0.11 0.14 0.13 0.09 0.09 0.08 0.06 0.06 0.07 0.06 0.08 0.12 0.09 0.08 0.08 0.04 0.05 0.05 0.05 0.07 0.04 0.03 0.03 0.03 0.04 0.02 0.03
0.00 0.00 0.00 0.00 0.02 0.00 0.00 0.01 0.00 0.00 0.00 0.00 0.01 0.02 0.00 0.00 0.00 0.00 0.00 0.00 0.00 0.02 0.01 0.04 0.04 0.13 0.10 0.19 0.25 0.20 0.16 0.52 0.38 0.26 0.32 0.75 0.94 1.37 1.54 1.96 2.05 1.71 1.48 1.45 0.53 0.32 0.32 0.12 0.07 0.12 0.12 0.14 0.09 0.13 0.02 0.03 0.02 0.03 0.02 0.03 0.03 0.02 0.02 0.02 0.06 0.05 0.08 0.10 0.10 0.12 0.10 0.14 0.11 0.14 0.14 0.15 0.11 0.10 0.08 0.09 0.08 0.06 0.09 0.09 0.08 0.04 0.05 0.04 0.02 0.02 0.02 0.03 0.05 0.04 0.01 0.01 0.01
0.00 0.00 0.00 0.00 0.00 0.00 0.00 0.00 0.00 0.00 0.00 0.00 0.00 0.00 0.00 0.00 0.00 0.00 0.00 0.00 0.00 0.00 0.00 0.02 0.01 0.03 0.16 0.07 0.09 0.19 0.19 0.13 0.40 0.40 0.19 0.36 0.48 1.00 1.31 1.67 1.72 1.50 1.37 1.73 1.02 0.32 0.29 0.09 0.09 0.16 0.14 0.15 0.17 0.15 0.08 0.05 0.03 0.03 0.03 0.02 0.05 0.05 0.04 0.05 0.05 0.09 0.10 0.13 0.12 0.12 0.13 0.12 0.11 0.12 0.18 0.20 0.12 0.11 0.14 0.05 0.08 0.08 0.09 0.07 0.07 0.07 0.05 0.05 0.03 0.03 0.02 0.03 0.02 0.00 0.01 0.02 0.03
0.00 0.00 0.00 0.00 0.00 0.00 0.00 0.00 0.00 0.00 0.00 0.00 0.00 0.00 0.00 0.00 0.00 0.00 0.00 0.00 0.00 0.00 0.01 0.00 0.01 0.07 1.13 0.04 0.52 0.17 0.16 0.18 0.20 0.09 0.15 0.38 0.77 1.32 1.54 1.39 1.38 1.94 1.26 1.85 1.02 0.33 0.70 0.11 0.10 0.06 0.11 0.16 0.13 0.28 0.20 0.12 0.05 0.06 0.02 0.02 0.03 0.02 0.06 0.06 0.05 0.08 0.10 0.17 0.17 0.10 0.12 0.16 0.11 0.09 0.14 0.11 0.18 0.08 0.10 0.06 0.04 0.13 0.07 0.04 0.04 0.05 0.06 0.04 0.04 0.03 0.02 0.02 0.01 0.00 0.02 0.03 0.01
0.00 0.00 0.00 0.00 0.00 0.00 0.00 0.00 0.00 0.00 0.00 0.00 0.00 0.00 0.00 0.00 0.00 0.00 0.00 0.00 0.00 0.00 0.01 0.01 0.03 0.16 0.72 0.21 0.44 0.33 0.26 0.35 0.22 0.15 0.64 0.74 1.19 1.29 1.68 1.37 1.58 1.32 1.64 1.54 0.97 0.40 0.34 0.12 0.06 0.05 0.04 0.04 0.13 0.17 0.17 0.14 0.09 0.06 0.04 0.02 0.04 0.02 0.03 0.05 0.07 0.09 0.11 0.12 0.14 0.23 0.16 0.12 0.09 0.08 0.07 0.11 0.19 0.12 0.10 0.10 0.09 0.12 0.04 0.05 0.05 0.07 0.04 0.04 0.03 0.04 0.02 0.02 0.01 0.00 0.00 0.00 0.00
0.00 0.00 0.00 0.00 0.00 0.00 0.00 0.00 0.00 0.00 0.00 0.00 0.00 0.00 0.00 0.00 0.00 0.00 0.00 0.00 0.00 0.00 0.01 0.00 0.00 0.03 0.14 0.81 0.34 0.44 0.50 0.32 0.47 0.33 0.45 0.76 1.56 1.83 1.39 1.87 2.18 2.27 2.99 2.35 0.99 0.45 0.36 0.66 0.09 0.04 0.05 0.02 0.05 0.14 0.15 0.12 0.08 0.02 0.04 0.02 0.03 0.04 0.04 0.08 0.04 0.06 0.09 0.09 0.13 0.15 0.14 0.10 0.10 0.08 0.06 0.07 0.13 0.21 0.08 0.08 0.06 0.09 0.08 0.05 0.04 0.04 0.02 0.02 0.02 0.03 0.02 0.01 0.01 0.01 0.00 0.00 0.00
0.00 0.00 0.00 0.00 0.00 0.00 0.00 0.00 0.00 0.00 0.00 0.00 0.00 0.00 0.00 0.00 0.00 0.00 0.00 0.00 0.00 0.00 0.00 0.01 0.01 0.04 0.05 0.54 0.72 0.55 0.70 0.42 0.38 0.76 1.19 0.93 2.23 2.19 3.70 2.35 2.43 2.51 2.45 2.74 1.54 0.67 0.50 0.68 0.59 0.08 0.08 0.09 0.05 0.06 0.15 0.18 0.19 0.07 0.02 0.03 0.02 0.10 0.09 0.07 0.07 0.13 0.11 0.11 0.13 0.11 0.21 0.11 0.12 0.11 0.10 0.11 0.15 0.10 0.05 0.05 0.06 0.11 0.07 0.04 0.03 0.01 0.01 0.01 0.01 0.01 0.01 0.01 0.01 0.01 0.00 0.00 0.00
0.00 0.00 0.00 0.00 0.00 0.00 0.00 0.00 0.00 0.00 0.00 0.00 0.00 0.01 0.00 0.00 0.00 0.00 0.00 0.00 0.00 0.01 0.01 0.00 0.05 0.00 0.22 0.35 0.55 1.45 0.95 0.73 1.46 0.84 1.31 1.46 1.58 1.70 2.53 1.69 1.88 2.82 2.55 3.09 1.40 0.83 0.76 0.73 0.78 0.90 0.25 0.19 0.19 0.16 0.34 0.28 0.24 0.18 0.05 0.05 0.05 0.07 0.05 0.05 0.08 0.15 0.09 0.15 0.10 0.12 0.12 0.12 0.22 0.16 0.12 0.11 0.11 0.10 0.09 0.06 0.12 0.12 0.06 0.04 0.05 0.02 0.02 0.02 0.02 0.01 0.00 0.00 0.00 0.01 0.01 0.01 0.01
0.00 0.00 0.00 0.00 0.00 0.00 0.00 0.00 0.00 0.00 0.00 0.01 0.00 0.00 0.00 0.00 0.00 0.00 0.00 0.00 0.00 0.00 0.00 0.00 0.00 0.01 0.72 0.45 0.87 1.10 1.02 1.15 1.08 1.10 1.02 1.36 1.33 2.22 1.92 2.70 4.32 3.05 2.93 2.52 1.26 0.67 0.57 0.52 0.51 0.66 0.68 0.45 0.37 0.35 0.28 0.26 0.15 0.17 0.19 0.10 0.13 0.12 0.10 0.11 0.15 0.15 0.19 0.13 0.12 0.10 0.17 0.25 0.18 0.19 0.13 0.20 0.09 0.16 0.09 0.11 0.07 0.07 0.04 0.02 0.02 0.03 0.01 0.00 0.00 0.00 0.00 0.00 0.00 0.00 0.00 0.00 0.01
0.00 0.00 0.00 0.00 0.00 0.00 0.00 0.01 0.00 0.00 0.00 0.00 0.00 0.00 0.00 0.00 0.00 0.00 0.00 0.00 0.01 0.02 0.01 0.00 0.00 0.04 0.47 0.32 1.18 1.25 1.23 1.33 1.08 1.37 0.90 1.41 1.57 2.29 3.07 2.29 3.85 2.86 2.36 1.78 1.57 0.99 0.54 0.52 0.55 0.50 0.87 0.75 0.90 0.69 0.30 0.29 0.31 0.21 0.25 0.38 0.20 0.15 0.14 0.19 0.19 0.14 0.13 0.12 0.16 0.19 0.19 0.18 0.22 0.16 0.24 0.22 0.17 0.31 0.11 0.07 0.06 0.05 0.04 0.02 0.01 0.02 0.04 0.03 0.03 0.04 0.07 0.01 0.00 0.00 0.00 0.00 0.00
0.00 0.00 0.00 0.00 0.00 0.00 0.00 0.00 0.01 0.00 0.00 0.00 0.00 0.00 0.00 0.00 0.00 0.01 0.00 0.00 0.03 0.02 0.00 0.00 0.00 0.06 1.53 0.26 0.91 0.68 0.76 1.19 1.88 1.67 2.03 1.78 1.41 3.35 4.24 4.22 4.83 3.90 2.68 2.51 1.96 1.70 1.17 0.87 0.59 0.63 0.65 0.63 0.93 1.13 1.49 1.51 0.75 1.05 0.69 0.32 0.41 0.44 0.27 0.66 0.58 0.27 0.12 0.15 0.11 0.14 0.19 0.24 0.25 0.22 0.17 0.22 0.19 0.35 0.29 0.09 0.10 0.04 0.03 0.03 0.02 0.01 0.05 0.05 0.08 0.02 0.00 0.01 0.00 0.00 0.00 0.00 0.00
0.00 0.00 0.00 0.00 0.00 0.00 0.01 0.00 0.00 0.00 0.01 0.00 0.00 0.00 0.00 0.00 0.00 0.01 0.01 0.00 0.05 0.01 0.00 0.07 0.00 0.12 0.17 0.20 0.45 0.41 0.93 1.47 2.10 1.92 2.11 1.87 2.78 3.55 3.15 2.92 2.95 2.70 2.46 2.47 2.59 2.17 1.13 1.31 1.04 1.00 0.90 1.15 1.37 1.51 1.24 0.96 1.61 1.96 1.23 0.65 0.70 0.77 0.96 0.81 0.36 0.34 0.24 0.18 0.23 0.18 0.20 0.38 0.34 0.61 0.37 0.45 0.21 0.22 0.24 0.32 0.11 0.05 0.03 0.02 0.03 0.02 0.02 0.04 0.00 0.02 0.01 0.00 0.00 0.00 0.00 0.00 0.00
0.00 0.00 0.01 0.00 0.00 0.00 0.00 0.00 0.00 0.02 0.00 0.00 0.00 0.00 0.00 0.00 0.00 0.00 0.00 0.00 0.01 0.01 0.02 0.09 0.09 0.02 0.50 0.47 0.44 0.62 1.80 2.08 1.22 1.72 1.91 1.50 2.77 2.99 2.44 2.31 2.52 2.98 2.62 2.97 2.77 2.21 2.08 1.53 1.85 1.89 1.32 1.59 1.98 1.68 1.52 1.10 0.91 1.35 1.09 1.48 0.85 0.77 0.37 0.33 0.22 0.21 0.24 0.23 0.25 0.20 0.24 0.47 0.81 0.74 0.67 0.70 0.15 0.44 0.15 0.13 0.13 0.11 0.05 0.01 0.02 0.02 0.00 0.02 0.06 0.03 0.02 0.00 0.00 0.00 0.00 0.00 0.01
0.00 0.00 0.00 0.00 0.00 0.00 0.00 0.00 0.00 0.00 0.00 0.00 0.00 0.00 0.00 0.00 0.00 0.00 0.00 0.02 0.01 0.02 0.01 0.08 0.04 0.31 0.55 0.78 0.60 0.97 1.08 1.39 1.16 0.85 1.25 1.42 1.37 2.12 2.39 2.80 2.92 2.69 2.60 2.54 2.46 2.59 2.06 2.63 2.15 2.26 2.35 2.34 1.56 1.96 2.04 1.20 1.67 1.58 1.84 0.97 1.47 0.97 0.58 0.25 0.50 0.44 0.97 0.55 0.24 0.44 0.82 0.85 1.02 1.12 1.03 1.02 0.69 0.31 0.33 0.09 0.11 0.07 0.06 0.02 0.01 0.01 0.00 0.01 0.04 0.05 0.05 0.01 0.00 0.00 0.00 0.04 0.04
0.00 0.00 0.00 0.00 0.00 0.00 0.00 0.00 0.00 0.00 0.00 0.00 0.00 0.00 0.00 0.00 0.00 0.00 0.03 0.03 0.05 0.12 0.11 0.37 0.28 0.43 0.69 0.75 1.01 0.55 0.80 1.12 0.85 1.00 0.97 0.96 1.23 0.96 2.01 2.15 2.18 2.07 2.17 2.08 2.23 2.52 2.94 2.44 1.96 2.22 2.19 2.40 2.59 2.34 2.12 1.78 1.52 1.29 1.42 1.07 1.08 0.96 1.06 0.44 0.51 0.78 0.78 0.82 0.58 0.59 0.99 1.04 0.91 1.29 1.44 0.93 0.78 0.31 0.41 0.07 0.07 0.05 0.03 0.02 0.02 0.02 0.03 0.01 0.01 0.05 0.05 0.03 0.00 0.00 0.09 0.16 0.11
0.00 0.00 0.00 0.00 0.00 0.00 0.00 0.00 0.00 0.00 0.00 0.00 0.00 0.00 0.00 0.00 0.00 0.00 0.01 0.05 0.04 0.08 0.20 0.42 0.42 0.58 0.81 0.81 0.68 0.57 0.57 0.78 1.14 1.30 1.90 1.80 1.37 1.68 1.87 2.09 2.20 2.02 1.71 1.74 1.86 2.05 2.75 2.80 2.78 3.51 2.07 1.80 1.68 1.73 2.63 1.89 1.60 1.35 1.53 1.03 0.80 0.98 1.10 0.88 0.86 0.56 1.01 1.40 1.43 1.21 1.44 1.40 1.36 1.37 0.76 0.89 0.57 0.48 0.30 0.15 0.11 0.06 0.03 0.01 0.02 0.03 0.03 0.02 0.03 0.03 0.13 0.05 0.01 0.08 0.25 0.23 0.18
0.00 0.00 0.00 0.00 0.00 0.00 0.00 0.00 0.00 0.00 0.00 0.00 0.00 0.00 0.00 0.00 0.00 0.00 0.03 0.08 0.11 0.17 0.15 0.37 0.41 0.53 0.61 0.43 0.77 1.29 1.60 1.67 2.20 4.09 2.85 1.75 2.56 3.04 2.60 2.13 2.97 2.96 3.12 2.81 2.09 2.45 2.17 2.16 2.04 2.91 3.00 3.36 2.57 2.46 2.69 2.14 1.67 2.46 2.34 1.54 1.74 1.25 1.13 1.01 1.06 1.49 1.91 2.02 1.78 1.52 1.11 1.64 1.89 1.68 0.95 0.71 0.64 0.57 0.60 0.33 0.28 0.24 0.13 0.13 0.03 0.10 0.10 0.16 0.11 0.27 0.13 0.04 0.19 0.14 0.13 0.27 0.18
0.00 0.00 0.00 0.00 0.00 0.00 0.00 0.00 0.00 0.00 0.00 0.00 0.00 0.00 0.00 0.00 0.00 0.00 0.01 0.10 0.32 0.17 0.23 0.23 0.42 0.48 0.75 0.72 1.34 0.83 1.23 1.92 3.37 4.88 3.32 3.89 5.27 3.42 2.62 2.71 2.93 2.76 2.38 1.95 1.72 2.24 2.04 1.93 2.30 2.42 2.25 2.13 1.62 2.15 2.29 1.85 1.48 2.55 2.21 2.45 2.04 2.16 1.65 1.95 1.92 1.83 1.92 1.67 1.30 1.20 1.34 1.44 1.53 1.10 1.60 1.14 0.96 0.59 0.49 0.23 0.35 0.34 0.20 0.27 0.08 0.17 0.24 0.21 0.16 0.18 0.07 0.20 0.13 0.13 0.09 0.06 0.05
0.00 0.00 0.00 0.00 0.00 0.00 0.00 0.00 0.00 0.00 0.00 0.00 0.00 0.00 0.00 0.00 0.00 0.01 0.01 0.01 0.10 0.15 0.23 0.27 0.34 0.56 0.68 0.97 1.19 1.17 1.72 2.83 4.52 3.43 2.61 4.23 3.53 2.59 1.95 2.60 2.89 3.12 3.31 3.41 2.93 2.15 2.19 2.31 2.89 3.38 2.40 1.87 1.87 1.88 2.03 1.55 1.62 2.65 2.16 1.99 1.94 2.17 2.10 2.25 2.62 1.97 2.11 2.22 1.89 1.87 1.85 1.79 1.46 1.07 0.99 0.91 0.83 1.11 1.27 1.02 0.60 0.75 0.43 0.36 0.12 0.28 0.34 0.21 0.41 0.53 0.56 0.12 0.07 0.09 0.05 0.06 0.04
0.00 0.00 0.00 0.00 0.00 0.00 0.00 0.00 0.00 0.00 0.00 0.00 0.00 0.00 0.00 0.00 0.01 0.02 0.02 0.02 0.03 0.20 0.38 0.34 0.69 1.02 0.93 1.30 0.98 1.13 1.32 3.34 3.98 4.16 4.59 3.25 2.89 2.47 2.18 2.97 2.74 2.75 3.14 2.54 2.48 2.99 2.39 2.31 2.04 2.65 2.32 2.17 1.88 2.17 2.24 2.29 2.05 1.80 1.65 2.08 2.40 1.64 1.58 1.94 2.40 2.25 2.58 2.05 1.28 1.71 1.55 1.82 1.49 1.47 1.31 1.28 0.95 1.26 1.54 1.00 0.95 0.94 1.02 0.71 0.36 0.20 0.39 0.59 0.39 0.31 0.39 0.40 0.18 0.10 0.24 0.06 0.08
0.00 0.00 0.00 0.00 0.00 0.00 0.00 0.00 0.00 0.00 0.00 0.00 0.00 0.00 0.00 0.00 0.00 0.00 0.02 0.05 0.05 0.21 0.23 0.66 0.64 1.52 1.40 0.95 1.32 2.09 2.59 3.28 2.09 2.37 2.94 3.98 3.42 2.32 2.69 3.52 2.54 2.22 2.20 2.27 3.33 3.48 2.10 2.26 2.40 2.43 2.54 3.05 2.78 2.38 2.52 2.17 1.89 2.00 1.62 1.78 2.37 2.17 1.89 1.63 2.49 2.63 1.81 1.65 1.48 1.15 1.49 1.72 1.86 1.19 1.44 1.51 1.78 1.23 1.03 0.84 0.65 0.73 0.84 0.84 0.50 0.31 0.46 0.51 0.51 0.80 0.69 0.36 0.15 0.32 0.25 0.28 0.47
0.00 0.00 0.00 0.00 0.00 0.00 0.00 0.00 0.00 0.00 0.00 0.00 0.00 0.00 0.00 0.00 0.00 0.02 0.07 0.10 0.07 0.15 0.32 0.20 0.73 1.22 1.13 0.84 1.14 1.70 1.62 1.13 1.31 1.36 1.71 2.39 2.65 2.51 2.64 2.44 2.21 2.02 2.08 2.44 2.85 3.65 3.21 3.01 2.64 2.66 2.70 2.76 2.90 2.85 2.72 1.47 1.90 1.90 1.42 1.28 2.20 1.65 1.76 1.68 1.68 2.03 1.80 1.42 1.32 1.26 1.56 2.05 1.68 1.67 1.71 1.80 1.42 1.78 0.89 1.02 0.89 0.83 0.50 0.55 0.32 0.41 0.57 0.71 0.98 0.50 0.67 0.33 0.51 0.77 0.37 0.13 0.06
0.00 0.00 0.00 0.00 0.00 0.00 0.00 0.00 0.00 0.00 0.00 0.00 0.00 0.00 0.01 0.00 0.00 0.23 0.27 0.07 0.08 0.18 0.33 0.59 0.75 1.20 1.20 0.89 1.12 2.14 1.17 1.14 1.28 1.77 1.43 1.77 2.06 2.34 2.24 2.79 1.87 1.63 1.96 2.73 2.19 2.32 2.63 2.83 4.02 3.56 2.52 3.04 3.21 2.62 2.17 1.90 1.97 1.92 1.66 1.54 1.25 1.22 1.11 1.23 1.25 1.19 1.44 1.67 1.09 1.13 1.21 1.68 2.08 2.16 1.79 1.94 1.47 1.75 1.51 1.42 1.31 2.04 1.47 0.89 0.56 0.41 0.53 0.79 0.84 0.81 0.80 0.55 0.55 0.74 0.47 0.30 0.19
0.00 0.00 0.00 0.00 0.00 0.00 0.00 0.00 0.00 0.00 0.00 0.00 0.00 0.00 0.00 0.00 0.00 0.06 0.11 0.34 0.18 0.19 0.63 0.82 0.94 1.05 1.49 0.78 1.37 1.48 1.69 1.81 2.19 1.84 1.35 1.58 1.68 1.70 1.64 2.20 1.84 1.49 1.51 1.88 2.38 2.52 2.47 2.52 2.17 2.13 2.45 2.90 2.40 3.07 2.64 2.19 1.56 1.52 1.74 1.41 1.24 1.11 0.93 0.71 0.81 0.74 1.07 1.53 1.53 1.48 1.56 1.35 1.42 2.01 2.29 1.89 1.99 1.70 1.84 1.58 2.01 1.90 1.46 1.14 0.85 1.25 0.73 0.82 0.80 0.53 0.82 0.67 1.02 0.90 0.71 0.32 0.13
0.00 0.00 0.00 0.01 0.00 0.00 0.00 0.01 0.00 0.00 0.00 0.00 0.00 0.00 0.00 0.00 0.02 0.11 0.24 0.32 0.56 0.59 0.65 0.91 1.11 1.62 1.21 1.51 1.79 1.93 2.45 1.74 1.86 2.36 2.14 2.84 2.50 2.64 2.46 2.04 1.99 1.98 1.86 1.75 2.39 2.71 2.58 2.05 2.11 2.11 2.15 2.85 2.31 2.18 1.92 2.17 1.87 1.46 1.33 1.43 1.51 0.86 0.86 0.68 1.22 1.05 1.00 1.69 1.56 1.69 1.67 1.16 1.36 1.84 2.40 1.60 1.56 1.44 1.79 1.92 1.54 1.50 2.01 1.63 0.98 0.90 0.80 0.74 0.88 0.43 0.49 0.33 0.31 0.25 0.34 0.28 0.21
0.00 0.00 0.00 0.00 0.01 0.05 0.00 0.00 0.00 0.00 0.00 0.00 0.00 0.01 0.12 0.02 0.04 0.08 0.06 0.30 0.28 0.64 1.07 1.40 1.87 1.71 2.68 2.30 1.40 1.56 1.72 3.22 3.72 2.56 2.50 2.57 2.35 2.33 1.80 1.76 2.20 1.99 1.80 1.72 2.08 1.98 1.59 2.46 2.47 2.27 2.52 3.15 2.34 2.58 2.25 1.99 2.28 2.63 2.10 1.72 1.19 0.84 0.84 0.91 1.07 1.51 1.55 1.61 1.61 1.47 1.72 1.21 1.32 1.67 1.71 1.59 1.68 1.47 1.62 1.67 1.93 1.42 2.09 1.47 1.18 1.11 0.65 0.71 0.57 0.64 0.79 0.49 0.35 0.64 0.75 0.50 0.42
0.00 0.00 0.00 0.00 0.00 0.00 0.00 0.00 0.00 0.00 0.00 0.00 0.00 0.01 0.03 0.15 0.27 0.10 0.16 0.27 0.81 1.41 1.57 2.00 2.40 1.41 1.57 1.74 1.56 1.43 2.09 2.05 2.19 2.12 1.95 1.88 2.33 1.68 1.91 1.92 2.32 1.66 1.94 1.93 2.67 2.21 1.72 2.79 3.48 3.92 3.15 3.34 2.31 2.54 1.51 1.84 2.90 2.43 2.49 2.05 1.57 1.03 1.22 1.22 1.76 1.92 1.08 1.11 1.33 1.85 2.03 1.77 2.15 1.84 2.15 2.28 2.16 1.95 1.70 1.67 1.59 1.63 1.61 1.94 1.31 0.96 1.22 1.20 1.04 1.17 1.03 0.64 0.25 0.64 0.64 0.50 0.50
0.00 0.00 0.00 0.00 0.00 0.00 0.00 0.00 0.00 0.00 0.00 0.00 0.00 0.00 0.07 0.06 0.12 0.16 0.37 0.83 1.30 0.90 1.07 1.40 1.61 1.32 1.17 1.48 1.24 1.24 0.97 1.19 1.33 1.39 1.96 2.68 1.60 1.39 1.43 1.81 1.81 1.70 2.52 2.75 2.84 3.47 3.28 3.80 3.48 2.56 2.64 2.73 2.14 1.45 2.09 2.75 2.55 2.12 2.06 2.27 1.69 1.56 1.35 1.57 1.49 1.53 1.40 1.09 1.07 1.32 1.71 2.20 2.11 1.79 2.11 2.14 2.03 1.58 1.92 1.81 1.41 1.78 1.52 2.15 1.77 1.77 1.82 1.27 1.04 1.30 1.35 0.85 0.46 0.42 0.53 0.56 1.01
0.00 0.00 0.00 0.00 0.00 0.00 0.00 0.00 0.00 0.00 0.00 0.00 0.00 0.04 0.05 0.08 0.29 0.28 0.91 1.42 0.86 0.55 1.31 0.93 1.59 1.49 1.65 1.27 2.33 1.24 1.30 0.71 0.35 0.58 0.63 1.32 1.91 1.75 2.34 2.97 1.94 1.89 1.93 2.18 1.80 2.11 2.35 4.06 4.56 3.42 3.21 3.01 1.98 2.04 2.85 2.85 2.27 1.91 2.13 2.11 2.28 1.53 1.24 1.23 1.26 1.66 1.59 1.53 1.78 1.56 2.77 2.38 1.81 1.86 1.77 1.99 2.09 1.82 1.57 1.53 1.94 1.64 2.23 1.90 2.04 1.82 1.52 2.02 1.43 1.10 0.79 0.84 0.98 0.93 0.68 0.86 1.30
0.00 0.00 0.00 0.00 0.00 0.00 0.01 0.00 0.00 0.00 0.00 0.00 0.00 0.00 0.04 0.04 0.01 0.31 1.47 1.12 0.92 0.55 0.65 1.30 0.80 0.44 0.31 0.71 0.51 0.71 0.49 0.39 0.42 0.57 0.82 1.15 1.13 1.84 3.15 2.06 2.81 2.02 1.72 2.48 2.96 3.40 3.29 3.79 2.67 3.21 3.91 3.76 3.24 2.89 3.26 2.71 2.59 1.97 2.08 1.99 2.01 1.81 1.39 1.36 1.68 1.79 1.98 2.17 3.11 2.39 1.80 1.73 1.43 2.07 1.61 1.76 1.95 1.65 1.71 1.81 1.88 2.08 2.15 2.21 2.56 1.67 2.51 2.27 1.68 1.00 1.01 0.78 1.14 1.08 0.98 1.35 1.09
0.05 0.01 0.01 0.01 0.00 0.00 0.00 0.00 0.01 0.00 0.00 0.00 0.00 0.00 0.01 0.06 0.01 0.03 0.04 0.65 0.64 0.88 0.94 1.60 1.39 0.48 0.44 0.54 0.49 0.38 0.53 0.70 0.37 0.60 1.19 1.51 1.44 1.48 1.58 1.50 2.17 2.00 1.90 2.33 5.02 5.86 3.11 3.80 4.70 4.23 4.05 3.73 3.68 3.97 3.53 3.00 2.67 1.96 1.91 2.33 2.01 2.23 2.03 1.24 1.75 2.08 2.18 3.22 2.74 3.01 3.31 2.46 1.69 1.39 1.39 2.26 2.12 1.90 1.75 1.75 2.03 2.36 2.28 1.98 1.47 1.82 2.04 1.39 1.29 1.49 0.97 0.77 0.83 0.81 1.20 1.11 1.06
0.00 0.00 0.00 0.00 0.02 0.03 0.01 0.01 0.00 0.00 0.00 0.00 0.00 0.01 0.02 0.00 0.02 0.04 0.37 0.47 0.51 1.20 1.41 1.33 1.23 1.68 1.15 0.88 0.55 0.55 0.39 0.54 0.58 0.74 1.17 1.12 1.13 0.84 0.74 1.21 1.52 1.92 2.41 3.54 4.82 3.55 3.11 3.17 3.11 3.94 3.67 4.62 4.06 2.61 1.94 1.94 1.99 1.89 2.13 2.04 1.65 1.89 1.59 1.11 1.74 2.91 2.23 2.39 2.16 2.38 2.75 2.58 1.83 1.43 1.58 2.16 2.61 2.23 2.39 2.08 2.36 2.47 2.14 1.80 1.72 1.30 1.20 1.10 1.47 1.73 1.62 0.97 0.80 0.69 0.70 1.17 1.19
0.00 0.00 0.00 0.01 0.00 0.01 0.00 0.00 0.00 0.00 0.00 0.00 0.00 0.01 0.01 0.01 0.02 0.01 0.07 0.11 1.05 1.40 2.10 2.46 2.49 1.30 0.57 0.98 0.40 0.74 0.67 0.63 0.64 0.73 0.83 1.27 1.55 1.88 1.01 0.67 0.73 1.01 1.74 3.09 4.03 4.03 3.31 3.81 3.60 2.63 2.92 3.19 2.47 2.51 1.97 2.05 1.62 1.88 1.75 1.56 1.48 1.89 1.72 1.91 1.58 2.88 1.78 1.75 2.21 1.98 1.63 1.84 2.82 1.96 2.00 1.93 1.57 1.56 2.07 1.78 2.07 2.21 1.49 1.99 1.33 1.24 1.08 0.98 1.39 1.79 1.84 1.98 1.69 1.18 1.66 1.14 2.74
0.00 0.00 0.00 0.00 0.00 0.02 0.01 0.01 0.00 0.00 0.00 0.00 0.00 0.02 0.01 0.03 0.03 0.04 0.05 0.08 0.39 0.39 0.53 0.32 0.80 1.02 0.95 0.81 0.62 0.37 0.97 1.28 0.91 0.53 0.66 0.68 0.85 0.96 1.30 1.30 1.13 1.34 2.16 3.60 3.30 3.66 3.39 3.65 4.74 3.63 3.33 3.37 2.56 2.29 1.77 2.22 1.60 1.75 1.83 2.15 1.87 1.43 1.87 2.11 2.03 1.34 1.89 1.98 2.16 1.52 1.89 1.70 2.03 1.88 1.44 1.91 1.28 1.17 1.54 1.16 1.40 1.91 1.38 1.04 0.99 1.01 1.44 1.38 1.22 1.82 1.65 1.56 1.40 1.44 2.48 1.39 2.16
0.00 0.01 0.00 0.00 0.03 0.02 0.00 0.00 0.00 0.00 0.00 0.00 0.01 0.01 0.04 0.06 0.04 0.06 0.04 0.04 0.09 0.06 0.05 0.10 0.22 0.39 0.48 0.39 0.43 0.95 1.20 0.75 0.62 0.36 0.42 0.82 0.69 0.75 1.12 1.25 1.38 1.91 2.87 2.36 2.77 3.58 3.81 3.13 3.88 3.95 4.83 3.86 2.24 1.68 1.55 1.32 1.33 2.51 2.89 2.17 1.35 2.06 2.32 1.95 1.89 2.29 2.46 2.46 3.07 2.50 2.20 1.52 1.80 2.03 1.54 1.31 1.43 1.24 1.44 1.39 1.39 1.69 1.39 1.23 1.23 1.10 1.23 1.64 1.21 1.48 2.06 1.38 2.18 2.21 2.56 2.04 1.77
0.00 0.01 0.01 0.05 0.07 0.02 0.11 0.09 0.00 0.03 0.00 0.00 0.00 0.05 0.03 0.06 0.05 0.06 0.14 0.10 0.11 0.11 0.13 0.24 0.39 0.55 0.26 0.48 0.49 0.64 0.63 0.37 1.17 0.81 0.54 0.65 0.99 1.49 0.96 1.51 1.45 2.36 3.36 3.08 2.41 2.68 2.92 3.20 3.49 2.50 3.55 2.46 2.35 2.05 1.86 2.09 1.06 2.34 1.68 1.80 3.16 2.12 2.11 2.50 3.29 3.04 2.39 2.03 2.26 2.12 2.17 1.22 1.02 1.12 1.22 1.00 1.13 1.48 1.10 1.15 1.19 1.34 1.23 1.05 1.15 1.27 0.94 1.46 1.46 1.40 1.47 1.42 1.32 1.93 1.18 1.64 1.35
0.02 0.01 0.01 0.02 0.03 0.09 0.00 0.09 0.02 0.00 0.01 0.00 0.01 0.04 0.12 0.08 0.15 0.16 0.17 0.40 0.77 1.05 0.89 0.47 0.36 0.39 1.00 1.24 1.20 0.62 0.71 0.48 0.83 1.00 1.12 1.30 1.74 2.08 2.04 2.09 2.97 3.42 2.80 2.66 2.67 2.73 3.02 3.62 3.30 2.17 2.73 2.54 1.77 1.97 2.02 1.95 1.90 1.85 1.75 3.09 2.73 2.77 2.88 2.84 3.04 2.61 1.97 2.19 1.90 1.89 1.73 1.01 1.14 1.29 1.10 1.11 0.84 1.01 0.73 0.88 1.17 1.09 1.26 0.99 0.82 1.15 1.03 1.01 1.45 2.07 1.63 1.57 1.19 1.15 1.90 1.00 1.17
0.06 0.10 0.03 0.00 0.01 0.00 0.01 0.00 0.01 0.01 0.14 0.03 0.01 0.14 0.28 0.33 0.15 0.14 0.17 0.30 1.06 1.77 1.27 0.35 0.72 0.87 1.19 1.50 1.07 1.77 1.69 0.72 0.79 0.77 0.56 0.46 0.76 0.99 2.30 3.84 2.82 2.31 2.04 3.43 2.96 3.78 3.71 3.36 2.26 2.13 3.09 2.86 1.96 1.63 1.56 2.14 1.81 2.49 2.75 2.24 2.92 2.06 2.13 2.25 2.36 1.82 1.69 1.54 1.49 1.22 1.33 1.25 1.54 1.22 1.19 0.98 1.13 1.02 0.94 1.00 1.23 1.06 1.31 0.87 1.07 1.20 0.96 1.85 1.47 1.70 1.56 1.13 1.62 1.44 1.56 1.11 1.49
0.02 0.14 0.00 0.01 0.01 0.00 0.01 0.00 0.01 0.04 0.24 0.33 0.01 0.12 0.54 0.28 0.44 0.43 0.38 0.29 0.33 0.44 0.70 0.31 0.23 0.77 0.99 0.97 0.82 1.09 1.09 0.69 0.62 0.84 0.84 0.66 1.16 1.52 2.98 2.91 2.13 1.92 2.21 1.51 2.79 4.02 4.14 3.82 2.10 1.70 2.08 2.71 2.44 2.46 3.08 2.91 2.17 2.25 2.20 2.57 2.55 2.20 2.30 2.04 1.61 1.36 1.43 1.46 1.17 1.29 1.69 1.65 1.52 1.19 0.94 0.60 0.71 0.75 0.82 0.70 0.79 0.91 0.72 1.16 1.10 1.38 1.29 1.47 1.21 1.36 1.26 1.86 1.27 1.11 1.45 1.70 1.12
0.21 0.02 0.01 0.00 0.00 0.01 0.03 0.01 0.01 0.09 0.01 0.04 0.00 0.05 0.29 0.36 0.50 0.42 0.38 0.23 0.47 0.44 0.29 0.65 1.01 0.73 1.35 1.22 0.89 0.87 0.55 0.60 0.57 0.88 1.10 1.08 1.21 1.68 2.03 2.04 1.95 2.43 2.65 2.07 4.13 4.45 2.17 1.93 1.70 1.48 2.15 2.98 2.78 2.36 3.52 2.40 2.32 3.25 3.04 3.00 2.26 1.80 1.42 1.69 1.31 1.03 1.31 2.03 1.65 1.30 1.53 1.22 0.95 0.86 0.67 0.77 0.56 0.55 0.81 1.04 0.85 1.07 0.64 0.62 1.27 1.85 1.69 1.35 1.26 1.21 1.71 1.70 0.87 1.20 1.35 1.44 0.69
0.09 0.00 0.00 0.00 0.00 0.02 0.01 0.03 0.05 0.05 0.05 0.48 0.09 0.15 0.11 0.25 0.35 0.77 0.79 0.52 0.92 0.70 0.45 0.67 0.49 0.51 1.16 0.80 0.65 0.73 0.57 0.43 0.88 1.08 1.14 1.22 1.91 1.72 1.30 1.33 1.31 1.75 2.25 2.95 2.62 3.34 2.95 2.66 1.74 1.66 2.98 2.91 2.35 1.51 1.46 1.97 2.21 2.90 2.51 2.57 2.62 1.93 1.70 1.74 1.49 1.75 1.41 1.82 0.95 1.04 0.95 0.91 0.90 0.83 1.11 0.84 1.11 1.09 0.94 0.83 0.91 0.72 1.01 0.90 1.10 1.51 1.23 1.41 1.38 1.71 1.36 1.08 1.04 1.52 1.21 1.70 1.62
0.03 0.00 0.00 0.01 0.00 0.00 0.02 0.05 0.09 0.19 0.06 0.18 0.16 0.16 0.10 0.28 0.40 0.59 1.29 0.66 0.72 0.94 0.90 0.29 0.26 0.26 0.42 0.48 0.55 0.48 0.67 0.63 0.37 1.02 0.44 1.16 1.65 2.56 2.08 2.03 1.69 2.26 2.02 2.31 2.92 5.07 2.85 2.51 3.57 2.89 3.27 2.71 2.12 1.44 1.86 2.53 2.43 2.32 2.53 1.73 1.75 1.64 1.43 1.54 1.28 1.03 0.89 0.93 1.09 1.17 1.16 1.28 1.06 0.95 0.85 0.88 1.06 1.06 0.75 0.53 0.57 0.58 0.93 1.05 1.71 0.95 1.12 1.07 1.00 1.17 1.22 1.10 1.09 1.55 1.79 1.60 1.35
0.00 0.00 0.01 0.01 0.02 0.03 0.04 0.03 0.15 0.18 0.07 0.26 0.13 0.09 0.08 0.47 0.31 0.29 0.66 0.37 0.19 0.23 0.40 0.34 0.36 1.07 0.81 0.77 0.66 0.42 0.48 0.60 0.57 1.04 1.16 0.84 1.18 1.34 1.52 1.50 1.93 2.22 2.64 2.45 3.25 3.89 1.99 2.19 2.69 3.18 3.54 2.92 2.45 3.11 2.75 2.95 2.65 3.69 1.47 1.39 1.43 0.99 0.88 0.91 1.62 0.92 0.75 1.61 1.28 1.19 1.89 1.85 1.75 1.21 1.07 0.95 0.60 0.69 0.68 0.58 0.48 0.72 0.97 1.04 1.24 1.15 1.07 0.88 0.97 1.34 1.83 1.85 2.58 1.56 1.21 1.26 1.54
0.01 0.03 0.04 0.02 0.07 0.06 0.03 0.13 0.08 0.27 0.27 0.20 0.09 0.10 0.06 0.19 0.35 0.22 0.15 0.15 0.13 0.11 0.23 0.24 0.33 0.30 0.50 0.78 0.34 0.36 0.53 0.65 0.79 0.77 0.92 1.17 2.35 2.28 2.43 2.91 3.06 3.48 2.54 2.03 1.68 1.69 1.57 1.33 2.37 2.45 3.57 2.85 3.18 4.06 3.59 3.89 3.25 1.85 1.89 2.12 1.38 0.91 0.78 0.67 0.94 0.69 0.62 0.76 0.47 0.84 1.23 2.51 1.99 1.84 1.03 0.90 0.52 0.33 0.55 0.77 0.70 0.91 0.96 0.94 0.92 0.70 1.31 1.53 1.66 1.54 1.71 1.67 1.80 1.21 1.82 1.57 1.46
0.04 0.04 0.04 0.31 0.59 0.23 0.42 0.24 0.34 0.14 0.15 0.22 0.09 0.08 0.14 0.07 0.32 0.24 0.24 0.24 0.16 0.08 0.12 0.23 0.29 0.41 0.46 0.65 0.40 0.54 0.54 0.95 0.92 1.50 3.28 2.44 1.95 1.90 1.93 1.74 1.76 1.67 2.31 1.81 1.56 1.21 0.86 1.86 2.09 2.91 4.15 3.28 3.21 3.10 3.14 2.94 1.90 1.69 1.24 0.87 0.77 0.59 0.80 0.96 1.27 0.67 0.83 0.96 0.88 1.08 1.04 1.36 1.24 1.02 1.14 0.80 0.65 0.64 0.76 0.86 0.84 0.76 0.87 0.65 1.28 1.27 1.96 1.67 2.03 1.90 1.66 1.58 1.68 0.91 1.05 1.51 1.57
0.05 0.04 0.16 0.17 0.49 0.29 0.10 0.30 0.15 0.25 0.12 0.06 0.09 0.07 0.17 0.30 0.47 0.12 0.30 0.22 0.14 0.18 0.15 0.51 0.84 0.67 0.32 0.56 0.56 0.84 1.51 1.80 1.97 4.36 3.07 2.86 2.12 0.95 1.66 1.87 2.63 2.59 2.13 1.56 1.37 0.93 1.33 2.34 3.21 3.01 3.60 2.28 2.25 2.64 2.32 1.54 1.23 1.18 1.21 0.82 0.71 0.86 1.21 1.36 1.28 1.02 1.41 1.51 1.31 1.46 1.19 0.91 1.09 0.86 0.91 0.95 0.86 1.10 1.16 1.06 1.34 1.06 1.29 1.27 1.28 0.84 1.03 1.77 2.45 1.89 1.86 1.48 1.04 0.92 1.87 1.76 1.67
0.02 0.01 0.04 0.53 0.36 0.37 0.26 0.19 0.25 0.18 0.39 0.23 0.14 0.07 0.12 0.18 1.99 0.33 0.23 0.12 0.08 0.10 0.18 0.23 0.27 0.54 0.88 0.65 0.70 1.16 2.95 3.20 3.70 2.13 1.10 0.78 0.77 0.95 0.95 1.61 1.71 1.54 1.67 1.19 0.80 0.69 0.94 2.69 2.90 3.62 5.20 2.64 3.01 1.71 1.78 1.38 1.36 1.14 1.22 1.28 1.76 0.99 1.21 1.02 0.60 0.74 0.99 1.24 1.60 1.39 1.62 1.45 1.04 1.04 1.05 1.04 0.92 0.90 0.70 1.38 1.20 1.87 1.02 0.89 0.88 1.17 1.07 1.86 1.88 1.59 1.42 1.43 1.68 1.40 1.59 1.75 1.66
0.02 0.04 0.05 0.12 0.25 0.12 0.44 0.57 0.21 0.41 0.37 0.13 0.13 0.16 0.57 1.01 1.28 0.50 0.18 0.10 0.09 0.12 0.27 0.31 0.44 0.44 0.54 1.41 2.02 2.31 2.07 2.04 1.43 0.98 0.52 0.70 0.76 0.55 0.35 0.62 0.77 1.31 1.41 2.47 1.62 1.92 2.15 3.28 2.54 3.28 3.96 2.37 2.14 1.88 2.11 1.98 1.32 1.14 1.14 0.66 1.16 1.28 0.50 1.21 0.66 0.97 0.86 1.05 1.16 0.98 0.76 0.87 1.30 2.12 2.00 1.19 1.33 0.88 1.09 1.37 2.23 1.91 1.77 1.95 1.70 1.83 2.12 2.25 1.73 1.94 1.70 1.75 1.04 1.05 1.71 2.09 1.33
0.20 0.03 0.12 0.09 0.06 0.09 0.14 0.12 0.11 0.10 0.15 0.16 0.03 0.20 0.43 0.45 1.07 0.56 0.41 0.28 0.23 0.11 0.24 0.14 0.46 0.79 0.93 1.70 1.69 1.47 1.36 1.41 1.15 1.63 1.75 1.28 0.76 0.63 0.47 0.85 0.92 0.59 1.58 1.92 2.29 3.19 2.98 2.36 1.97 2.19 4.05 3.59 3.44 2.78 2.73 2.22 1.34 0.95 0.79 0.83 0.91 0.72 0.42 0.71 1.22 0.63 0.45 0.45 0.74 0.94 0.79 0.62 1.19 1.64 0.79 0.83 1.33 2.40 2.06 2.31 2.12 2.49 2.45 2.14 1.81 1.82 2.16 1.97 2.60 2.49 1.84 1.50 1.24 1.75 1.78 1.43 1.33
0.11 0.17 0.11 0.12 0.14 0.22 0.24 0.57 0.37 0.16 0.35 0.14 0.06 0.16 0.50 0.17 0.96 0.84 0.57 0.66 0.36 0.33 0.32 0.25 0.36 0.69 0.98 1.36 0.90 0.69 1.38 1.32 1.15 1.57 1.81 1.90 1.27 1.46 1.59 1.21 0.80 0.84 1.58 1.48 1.58 2.58 2.67 3.36 2.85 3.53 5.00 2.39 3.73 3.28 2.30 1.82 1.67 1.19 1.32 1.65 1.33 1.14 0.75 0.77 0.68 0.36 0.23 0.41 0.53 0.93 1.09 0.83 0.85 1.09 1.44 1.24 1.76 2.35 3.20 3.22 2.90 2.61 2.43 2.50 2.53 2.16 2.36 3.30 3.27 2.56 1.92 1.74 1.60 1.99 1.65 1.15 1.24
0.12 0.18 0.10 0.17 0.48 0.40 0.18 0.23 0.45 0.37 0.32 0.31 0.18 0.17 0.16 0.25 0.94 0.56 0.63 0.38 0.49 0.46 0.27 0.23 0.36 0.72 1.07 1.25 1.15 0.90 1.14 0.98 0.94 0.90 1.20 1.34 0.80 0.56 0.57 0.72 0.93 0.99 0.83 0.55 0.68 0.62 0.94 1.81 3.43 4.54 4.96 4.43 3.15 1.86 1.65 1.41 1.19 1.64 1.07 1.27 1.32 0.86 0.59 0.62 0.45 0.38 0.44 0.38 0.32 0.50 0.68 1.15 0.87 1.15 1.18 1.16 2.26 3.20 2.58 1.80 2.24 2.42 2.66 2.02 2.90 2.36 1.79 2.74 2.65 2.20 1.78 1.52 2.09 1.96 1.74 1.46 1.31
0.04 0.01 0.08 0.17 0.17 0.37 0.53 0.45 0.66 0.62 0.61 0.34 0.42 0.25 0.47 0.33 0.59 0.26 0.39 0.29 0.41 0.42 0.45 0.39 0.52 0.46 0.51 0.46 0.48 0.54 0.64 0.88 1.02 0.97 0.99 1.44 1.53 1.79 1.59 0.96 0.94 0.75 0.70 0.62 0.49 0.41 0.49 1.12 2.01 2.40 2.23 3.11 2.74 2.31 1.33 0.68 1.16 0.76 0.92 1.16 0.64 0.68 0.77 0.77 0.84 0.81 0.81 0.74 0.55 0.51 0.75 1.03 1.75 1.64 1.58 1.95 1.56 1.33 1.25 1.20 1.25 1.40 1.20 1.78 2.21 2.04 1.10 1.22 1.11 1.23 1.27 0.91 1.30 1.56 1.73 1.06 1.19
0.17 0.11 0.10 0.26 0.24 0.32 0.20 0.63 0.32 0.50 0.53 0.51 0.43 0.45 0.70 0.70 0.28 0.33 0.30 0.58 0.48 0.35 0.33 0.44 0.56 0.98 0.75 1.19 1.15 0.89 0.47 0.46 0.78 0.92 0.92 0.77 0.68 0.92 0.62 0.78 0.72 1.08 0.71 0.51 0.61 0.76 0.70 0.82 0.86 0.88 0.93 0.79 0.96 2.56 2.23 1.64 0.94 1.45 0.90 0.89 1.22 1.46 1.24 0.96 0.93 0.99 1.08 0.68 0.79 0.66 0.66 1.55 1.26 0.80 0.84 1.20 1.18 0.87 0.97 1.25 1.14 1.43 1.41 1.18 1.16 1.13 1.29 1.10 1.43 1.01 1.00 1.19 1.17 1.30 1.20 1.01 1.04
0.39 0.26 0.36 0.40 0.56 0.76 0.80 0.67 0.17 0.26 0.41 0.46 0.37 0.46 0.66 0.66 0.21 0.63 0.66 0.40 0.86 0.66 0.70 0.72 0.82 0.68 0.91 1.01 0.74 0.72 1.05 0.84 0.61 0.78 0.65 0.85 1.38 0.90 0.67 0.59 0.57 0.53 0.75 0.79 0.52 0.69 0.67 0.51 0.62 0.71 1.34 0.79 0.72 1.42 2.12 2.39 2.59 1.97 2.16 2.17 1.81 1.76 1.67 1.30 0.95 0.72 0.84 1.05 1.41 1.57 1.08 1.06 1.32 1.69 1.63 1.69 1.40 1.63 1.57 0.77 0.77 1.00 1.17 1.20 1.09 1.06 1.50 1.21 0.93 1.52 1.66 1.61 2.14 1.75 1.12 1.47 1.80